Location: Betz
(49.1556°N, 2.9558°E)
Time: 21:41:16
(UTC+00:00)

ERBS - Pass Details

Date: 18 September 2019
Orbit: 418 x 425 km, 57.0° (Epoch: 15 October)

Event Time Altitude Azimuth Distance (km) Brightness Sun altitude
Rises 19:12:58 0° 303° (WNW) 2,394 7.8 -13.2°
Reaches altitude 10° 19:15:15 10° 315° (NW) 1,526 6.1 -13.6°
Maximum altitude 19:18:18 30° 18° (NNE) 806 3.7 -14.0°
Enters shadow 19:19:56 20° 65° (ENE) 1,066 3.9 -14.3°
